軌道要素
Epoch 2004 Mar. 16.0 TT = JDT 2453080.5
T 2004 Mar. 9.83331 TT MPC
q 2.4669499 (2000.0) P Q
n 0.10802425 Peri. 39.52546 -0.52142680 -0.80785507
a 4.3663836 Node 83.57298 +0.69606540 -0.58893642
e 0.4350130 Incl. 16.05033 +0.49356565 -0.02289264
P 9.12
From 125 observations 1931 Jan. 12-2012 Dec. 13, mean residual 0".53.
|